sat.trackr.live / text

‹ back to catalog

STARLINK-35903

NORAD 67168 · 2025-303F

PAYLOAD ACTIVE UNKNOWN

§ Identity

Operator
Country
US
Launch date
2025-12-17
Launch site
AFETR
Launch vehicle
Mass (kg)
RCS (m²)

Purposes: comms

External: N2YO · Heavens-Above · Gunter

§ Orbital elements

Epoch: 2026-09-20T01:25:48.995040Z

Period
94.27 min
Inclination
42.9999°
Eccentricity
0.0001392
Mean motion
15.27582235 rev/d
Perigee alt
482.1 km
Apogee alt
484.0 km
Semi-major
6,861.2 km
B*
3.3874e-4
RAAN
292.8350°
Arg perigee
272.3442°
Mean anomaly
87.7250°
Rev number
4,246

§ Raw data

STARLINK-359031 67168U 25303F   26263.05959485  .00009071  00000+0  33874-3 0  99992 67168  42.9999 292.8350 0001392 272.3442  87.7250 15.27582235 42465

JSON: /api/v1/satellites/67168 · /tle

For live sub-satellite position, see the globe view (requires WebGL).

§ Visibility from observer

Set your observer location to see the next 7 days of passes ≥ 10°. The values pass through the URL so the page stays shareable.

No JS? Fill the form by hand. The geolocation button needs JavaScript.